owner,sensor,date,latitude,longitude,vertical_datum,wind_speed,wind_to_direction,wind_speed_of_gust,qcFlag 
WAVCIS,ioos:station:WAVCIS:CSI15:1,2008-07-01T00:00:00Z,28.8332,-90.8320,10.0,2.375,235.0,,'11111222,11111222,99999999' 
WAVCIS,ioos:station:WAVCIS:CSI15:1,2008-07-01T01:00:00Z,28.8332,-90.8320,10.0,2.935,201.0,,'11111222,11111222,99999999' 
WAVCIS,ioos:station:WAVCIS:CSI15:1,2008-07-01T02:00:00Z,28.8332,-90.8320,10.0,2.899,215.0,,'11111222,11111222,99999999' 
WAVCIS,ioos:station:WAVCIS:CSI15:1,2008-07-01T03:00:00Z,28.8332,-90.8320,10.0,2.554,212.0,,'11111222,11111222,99999999' 
WAVCIS,ioos:station:WAVCIS:CSI15:1,2008-07-01T04:00:00Z,28.8332,-90.8320,10.0,2.838,206.0,,'11111222,11111222,99999999' 
WAVCIS,ioos:station:WAVCIS:CSI15:1,2008-07-01T05:00:00Z,28.8332,-90.8320,10.0,2.845,225.0,,'11111222,11111222,99999999' 
WAVCIS,ioos:station:WAVCIS:CSI15:1,2008-07-01T06:00:00Z,28.8332,-90.8320,10.0,3.577,233.0,,'11111222,11111222,99999999' 
WAVCIS,ioos:station:WAVCIS:CSI15:1,2008-07-01T07:00:00Z,28.8332,-90.8320,10.0,5.27,15.0,,'11111222,11111222,99999999' 
WAVCIS,ioos:station:WAVCIS:CSI15:1,2008-07-01T08:00:00Z,28.8332,-90.8320,10.0,3.822,145.0,,'11111222,11111222,99999999' 
WAVCIS,ioos:station:WAVCIS:CSI15:1,2008-07-01T09:00:00Z,28.8332,-90.8320,10.0,2.074,113.0,,'11111222,11111222,99999999' 
WAVCIS,ioos:station:WAVCIS:CSI15:1,2008-07-01T10:00:00Z,28.8332,-90.8320,10.0,2.213,14.0,,'11111222,11111222,99999999' 
WAVCIS,ioos:station:WAVCIS:CSI15:1,2008-07-01T11:00:00Z,28.8332,-90.8320,10.0,3.403,344.0,,'11111222,11111222,99999999' 
WAVCIS,ioos:station:WAVCIS:CSI15:1,2008-07-01T12:00:00Z,28.8332,-90.8320,10.0,3.761,355.0,,'11111222,11111222,99999999' 
WAVCIS,ioos:station:WAVCIS:CSI15:1,2008-07-01T13:00:00Z,28.8332,-90.8320,10.0,4.22,354.0,,'11111222,11111222,99999999' 
WAVCIS,ioos:station:WAVCIS:CSI15:1,2008-07-01T14:00:00Z,28.8332,-90.8320,10.0,3.241,7.0,,'11111222,11111222,99999999' 
WAVCIS,ioos:station:WAVCIS:CSI15:1,2008-07-01T15:00:00Z,28.8332,-90.8320,10.0,2.124,43.0,,'11111222,11111222,99999999' 
WAVCIS,ioos:station:WAVCIS:CSI15:1,2008-07-01T16:00:00Z,28.8332,-90.8320,10.0,3.953,241.0,,'11111222,11111222,99999999' 
WAVCIS,ioos:station:WAVCIS:CSI15:1,2008-07-01T17:00:00Z,28.8332,-90.8320,10.0,3.854,257.0,,'11111222,11111222,99999999' 
WAVCIS,ioos:station:WAVCIS:CSI15:1,2008-07-01T18:00:00Z,28.8332,-90.8320,10.0,3.362,260.0,,'11111222,11111222,99999999' 
WAVCIS,ioos:station:WAVCIS:CSI15:1,2008-07-01T19:00:00Z,28.8332,-90.8320,10.0,3.277,261.0,,'11111222,11111222,99999999' 
WAVCIS,ioos:station:WAVCIS:CSI15:1,2008-07-01T20:00:00Z,28.8332,-90.8320,10.0,3.104,277.0,,'11111222,11111222,99999999' 
WAVCIS,ioos:station:WAVCIS:CSI15:1,2008-07-01T21:00:00Z,28.8332,-90.8320,10.0,1.007,248.0,,'11111222,11111222,99999999' 
WAVCIS,ioos:station:WAVCIS:CSI15:1,2008-07-01T22:00:00Z,28.8332,-90.8320,10.0,0.069,160.0,,'11111222,11111222,99999999' 
WAVCIS,ioos:station:WAVCIS:CSI15:1,2008-07-01T23:00:00Z,28.8332,-90.8320,10.0,1.023,161.0,,'11111222,11111222,99999999' 
WAVCIS,ioos:station:WAVCIS:CSI15:1,2008-07-02T00:00:00Z,28.8332,-90.8320,10.0,1.728,196.0,,'11111222,11111222,99999999' 
WAVCIS,ioos:station:WAVCIS:CSI15:1,2008-07-02T01:00:00Z,28.8332,-90.8320,10.0,2.049,207.0,,'11111222,11111222,99999999' 
WAVCIS,ioos:station:WAVCIS:CSI15:1,2008-07-02T02:00:00Z,28.8332,-90.8320,10.0,1.432,174.0,,'11111222,11111222,99999999' 
WAVCIS,ioos:station:WAVCIS:CSI15:1,2008-07-02T03:00:00Z,28.8332,-90.8320,10.0,1.936,200.0,,'11111222,11111222,99999999' 
WAVCIS,ioos:station:WAVCIS:CSI15:1,2008-07-02T04:00:00Z,28.8332,-90.8320,10.0,0.937,214.0,,'11111222,11111222,99999999' 
WAVCIS,ioos:station:WAVCIS:CSI15:1,2008-07-02T05:00:00Z,28.8332,-90.8320,10.0,0.443,159.0,,'11111222,11111222,99999999' 
WAVCIS,ioos:station:WAVCIS:CSI15:1,2008-07-02T06:00:00Z,28.8332,-90.8320,10.0,1.703,157.0,,'11111222,11111222,99999999' 
WAVCIS,ioos:station:WAVCIS:CSI15:1,2008-07-02T07:00:00Z,28.8332,-90.8320,10.0,0.202,150.0,,'11111222,11111222,99999999' 
WAVCIS,ioos:station:WAVCIS:CSI15:1,2008-07-02T08:00:00Z,28.8332,-90.8320,10.0,0.21,48.0,,'11111222,11111222,99999999' 
WAVCIS,ioos:station:WAVCIS:CSI15:1,2008-07-02T09:00:00Z,28.8332,-90.8320,10.0,0.178,177.0,,'11111222,11111222,99999999' 
WAVCIS,ioos:station:WAVCIS:CSI15:1,2008-07-02T10:00:00Z,28.8332,-90.8320,10.0,0.873,124.0,,'11111222,11111222,99999999' 
WAVCIS,ioos:station:WAVCIS:CSI15:1,2008-07-02T11:00:00Z,28.8332,-90.8320,10.0,1.689,135.0,,'11111222,11111222,99999999' 
WAVCIS,ioos:station:WAVCIS:CSI15:1,2008-07-02T12:00:00Z,28.8332,-90.8320,10.0,1.977,176.0,,'11111222,11111222,99999999' 
WAVCIS,ioos:station:WAVCIS:CSI15:1,2008-07-02T13:00:00Z,28.8332,-90.8320,10.0,0.897,193.0,,'11111222,11111222,99999999' 
WAVCIS,ioos:station:WAVCIS:CSI15:1,2008-07-02T14:00:00Z,28.8332,-90.8320,10.0,0.308,157.0,,'11111222,11111222,99999999' 
WAVCIS,ioos:station:WAVCIS:CSI15:1,2008-07-02T15:00:00Z,28.8332,-90.8320,10.0,0.853,145.0,,'11111222,11111222,99999999' 
WAVCIS,ioos:station:WAVCIS:CSI15:1,2008-07-02T16:00:00Z,28.8332,-90.8320,10.0,1.905,166.0,,'11111222,11111222,99999999' 
WAVCIS,ioos:station:WAVCIS:CSI15:1,2008-07-02T17:00:00Z,28.8332,-90.8320,10.0,2.23,122.0,,'11111222,11111222,99999999' 
WAVCIS,ioos:station:WAVCIS:CSI15:1,2008-07-02T18:00:00Z,28.8332,-90.8320,10.0,3.455,133.0,,'11111222,11111222,99999999' 
WAVCIS,ioos:station:WAVCIS:CSI15:1,2008-07-02T19:00:00Z,28.8332,-90.8320,10.0,4.199,139.0,,'11111222,11111222,99999999' 
WAVCIS,ioos:station:WAVCIS:CSI15:1,2008-07-02T20:00:00Z,28.8332,-90.8320,10.0,4.913,144.0,,'11111222,11111222,99999999' 
WAVCIS,ioos:station:WAVCIS:CSI15:1,2008-07-02T21:00:00Z,28.8332,-90.8320,10.0,3.551,168.0,,'11111222,11111222,99999999' 
WAVCIS,ioos:station:WAVCIS:CSI15:1,2008-07-02T22:00:00Z,28.8332,-90.8320,10.0,3.396,177.0,,'11111222,11111222,99999999' 
WAVCIS,ioos:station:WAVCIS:CSI15:1,2008-07-02T23:00:00Z,28.8332,-90.8320,10.0,4.242,181.0,,'11111222,11111222,99999999' 
WAVCIS,ioos:station:WAVCIS:CSI15:1,2008-07-03T00:00:00Z,28.8332,-90.8320,10.0,4.675,190.0,,'11111222,11111222,99999999' 
WAVCIS,ioos:station:WAVCIS:CSI15:1,2008-07-03T01:00:00Z,28.8332,-90.8320,10.0,4.373,188.0,,'11111222,11111222,99999999' 
WAVCIS,ioos:station:WAVCIS:CSI15:1,2008-07-03T02:00:00Z,28.8332,-90.8320,10.0,3.688,206.0,,'11111222,11111222,99999999' 
WAVCIS,ioos:station:WAVCIS:CSI15:1,2008-07-03T03:00:00Z,28.8332,-90.8320,10.0,1.821,288.0,,'11111222,11111222,99999999' 
WAVCIS,ioos:station:WAVCIS:CSI15:1,2008-07-03T04:00:00Z,28.8332,-90.8320,10.0,0.66,180.0,,'11111222,11111222,99999999' 
WAVCIS,ioos:station:WAVCIS:CSI15:1,2008-07-03T05:00:00Z,28.8332,-90.8320,10.0,1.402,145.0,,'11111222,11111222,99999999' 
WAVCIS,ioos:station:WAVCIS:CSI15:1,2008-07-03T06:00:00Z,28.8332,-90.8320,10.0,0.663,118.0,,'11111222,11111222,99999999' 
WAVCIS,ioos:station:WAVCIS:CSI15:1,2008-07-03T07:00:00Z,28.8332,-90.8320,10.0,3.781,134.0,,'11111222,11111222,99999999' 
WAVCIS,ioos:station:WAVCIS:CSI15:1,2008-07-03T08:00:00Z,28.8332,-90.8320,10.0,4.425,131.0,,'11111222,11111222,99999999' 
WAVCIS,ioos:station:WAVCIS:CSI15:1,2008-07-03T09:00:00Z,28.8332,-90.8320,10.0,5.731,139.0,,'11111222,11111222,99999999' 
WAVCIS,ioos:station:WAVCIS:CSI15:1,2008-07-03T10:00:00Z,28.8332,-90.8320,10.0,4.902,137.0,,'11111222,11111222,99999999' 
WAVCIS,ioos:station:WAVCIS:CSI15:1,2008-07-03T11:00:00Z,28.8332,-90.8320,10.0,4.921,143.0,,'11111222,11111222,99999999' 
WAVCIS,ioos:station:WAVCIS:CSI15:1,2008-07-03T12:00:00Z,28.8332,-90.8320,10.0,3.904,145.0,,'11111222,11111222,99999999' 
WAVCIS,ioos:station:WAVCIS:CSI15:1,2008-07-03T13:00:00Z,28.8332,-90.8320,10.0,4.493,146.0,,'11111222,11111222,99999999' 
WAVCIS,ioos:station:WAVCIS:CSI15:1,2008-07-03T14:00:00Z,28.8332,-90.8320,10.0,3.823,145.0,,'11111222,11111222,99999999' 
WAVCIS,ioos:station:WAVCIS:CSI15:1,2008-07-03T15:00:00Z,28.8332,-90.8320,10.0,3.685,169.0,,'11111222,11111222,99999999' 
WAVCIS,ioos:station:WAVCIS:CSI15:1,2008-07-03T16:00:00Z,28.8332,-90.8320,10.0,2.801,177.0,,'11111222,11111222,99999999' 
WAVCIS,ioos:station:WAVCIS:CSI15:1,2008-07-03T17:00:00Z,28.8332,-90.8320,10.0,3.707,185.0,,'11111222,11111222,99999999' 
WAVCIS,ioos:station:WAVCIS:CSI15:1,2008-07-03T18:00:00Z,28.8332,-90.8320,10.0,2.472,161.0,,'11111222,11111222,99999999' 
WAVCIS,ioos:station:WAVCIS:CSI15:1,2008-07-03T19:00:00Z,28.8332,-90.8320,10.0,4.21,191.0,,'11111222,11111222,99999999' 
WAVCIS,ioos:station:WAVCIS:CSI15:1,2008-07-03T20:00:00Z,28.8332,-90.8320,10.0,4.357,198.0,,'11111222,11111222,99999999' 
WAVCIS,ioos:station:WAVCIS:CSI15:1,2008-07-03T21:00:00Z,28.8332,-90.8320,10.0,4.716,187.0,,'11111222,11111222,99999999' 
WAVCIS,ioos:station:WAVCIS:CSI15:1,2008-07-03T22:00:00Z,28.8332,-90.8320,10.0,6.16,203.0,,'11111222,11111222,99999999' 
WAVCIS,ioos:station:WAVCIS:CSI15:1,2008-07-03T23:00:00Z,28.8332,-90.8320,10.0,6.842,205.0,,'11111222,11111222,99999999' 
WAVCIS,ioos:station:WAVCIS:CSI15:1,2008-07-04T00:00:00Z,28.8332,-90.8320,10.0,6.015,210.0,,'11111222,11111222,99999999' 
WAVCIS,ioos:station:WAVCIS:CSI15:1,2008-07-04T01:00:00Z,28.8332,-90.8320,10.0,4.655,222.0,,'11111222,11111222,99999999' 
WAVCIS,ioos:station:WAVCIS:CSI15:1,2008-07-04T02:00:00Z,28.8332,-90.8320,10.0,2.762,251.0,,'11111222,11111222,99999999' 
WAVCIS,ioos:station:WAVCIS:CSI15:1,2008-07-04T03:00:00Z,28.8332,-90.8320,10.0,2.221,253.0,,'11111222,11111222,99999999' 
WAVCIS,ioos:station:WAVCIS:CSI15:1,2008-07-04T04:00:00Z,28.8332,-90.8320,10.0,2.62,205.0,,'11111222,11111222,99999999' 
WAVCIS,ioos:station:WAVCIS:CSI15:1,2008-07-04T05:00:00Z,28.8332,-90.8320,10.0,1.309,240.0,,'11111222,11111222,99999999' 
WAVCIS,ioos:station:WAVCIS:CSI15:1,2008-07-04T06:00:00Z,28.8332,-90.8320,10.0,1.973,206.0,,'11111222,11111222,99999999' 
WAVCIS,ioos:station:WAVCIS:CSI15:1,2008-07-04T07:00:00Z,28.8332,-90.8320,10.0,1.962,209.0,,'11111222,11111222,99999999' 
WAVCIS,ioos:station:WAVCIS:CSI15:1,2008-07-04T08:00:00Z,28.8332,-90.8320,10.0,2.592,188.0,,'11111222,11111222,99999999' 
WAVCIS,ioos:station:WAVCIS:CSI15:1,2008-07-04T09:00:00Z,28.8332,-90.8320,10.0,2.632,166.0,,'11111222,11111222,99999999' 
WAVCIS,ioos:station:WAVCIS:CSI15:1,2008-07-04T10:00:00Z,28.8332,-90.8320,10.0,2.896,166.0,,'11111222,11111222,99999999' 
WAVCIS,ioos:station:WAVCIS:CSI15:1,2008-07-04T11:00:00Z,28.8332,-90.8320,10.0,1.538,152.0,,'11111222,11111222,99999999' 
WAVCIS,ioos:station:WAVCIS:CSI15:1,2008-07-04T12:00:00Z,28.8332,-90.8320,10.0,1.717,133.0,,'11111222,11111222,99999999' 
WAVCIS,ioos:station:WAVCIS:CSI15:1,2008-07-04T13:00:00Z,28.8332,-90.8320,10.0,0.962,130.0,,'11111222,11111222,99999999' 
WAVCIS,ioos:station:WAVCIS:CSI15:1,2008-07-04T14:00:00Z,28.8332,-90.8320,10.0,1.217,81.0,,'11111222,11111222,99999999' 
WAVCIS,ioos:station:WAVCIS:CSI15:1,2008-07-04T15:00:00Z,28.8332,-90.8320,10.0,2.224,138.0,,'11111222,11111222,99999999' 
WAVCIS,ioos:station:WAVCIS:CSI15:1,2008-07-04T16:00:00Z,28.8332,-90.8320,10.0,2.98,132.0,,'11111222,11111222,99999999' 
WAVCIS,ioos:station:WAVCIS:CSI15:1,2008-07-04T17:00:00Z,28.8332,-90.8320,10.0,3.32,160.0,,'11111222,11111222,99999999' 
WAVCIS,ioos:station:WAVCIS:CSI15:1,2008-07-04T18:00:00Z,28.8332,-90.8320,10.0,3.456,163.0,,'11111222,11111222,99999999' 
WAVCIS,ioos:station:WAVCIS:CSI15:1,2008-07-04T19:00:00Z,28.8332,-90.8320,10.0,2.775,168.0,,'11111222,11111222,99999999' 
WAVCIS,ioos:station:WAVCIS:CSI15:1,2008-07-04T20:00:00Z,28.8332,-90.8320,10.0,2.758,140.0,,'11111222,11111222,99999999' 
WAVCIS,ioos:station:WAVCIS:CSI15:1,2008-07-04T21:00:00Z,28.8332,-90.8320,10.0,2.316,175.0,,'11111222,11111222,99999999' 
WAVCIS,ioos:station:WAVCIS:CSI15:1,2008-07-04T22:00:00Z,28.8332,-90.8320,10.0,2.554,187.0,,'11111222,11111222,99999999' 
WAVCIS,ioos:station:WAVCIS:CSI15:1,2008-07-04T23:00:00Z,28.8332,-90.8320,10.0,2.444,189.0,,'11111222,11111222,99999999' 
WAVCIS,ioos:station:WAVCIS:CSI15:1,2008-07-05T00:00:00Z,28.8332,-90.8320,10.0,2.645,186.0,,'11111222,11111222,99999999' 
WAVCIS,ioos:station:WAVCIS:CSI15:1,2008-07-05T01:00:00Z,28.8332,-90.8320,10.0,2.221,202.0,,'11111222,11111222,99999999' 
WAVCIS,ioos:station:WAVCIS:CSI15:1,2008-07-05T02:00:00Z,28.8332,-90.8320,10.0,2.14,205.0,,'11111222,11111222,99999999' 
WAVCIS,ioos:station:WAVCIS:CSI15:1,2008-07-05T03:00:00Z,28.8332,-90.8320,10.0,2.446,209.0,,'11111222,11111222,99999999' 
WAVCIS,ioos:station:WAVCIS:CSI15:1,2008-07-05T04:00:00Z,28.8332,-90.8320,10.0,1.142,259.0,,'11111222,11111222,99999999' 
WAVCIS,ioos:station:WAVCIS:CSI15:1,2008-07-05T05:00:00Z,28.8332,-90.8320,10.0,1.652,207.0,,'11111222,11111222,99999999' 
WAVCIS,ioos:station:WAVCIS:CSI15:1,2008-07-05T06:00:00Z,28.8332,-90.8320,10.0,2.153,208.0,,'11111222,11111222,99999999' 
WAVCIS,ioos:station:WAVCIS:CSI15:1,2008-07-05T07:00:00Z,28.8332,-90.8320,10.0,1.847,183.0,,'11111222,11111222,99999999' 
WAVCIS,ioos:station:WAVCIS:CSI15:1,2008-07-05T08:00:00Z,28.8332,-90.8320,10.0,1.532,199.0,,'11111222,11111222,99999999' 
WAVCIS,ioos:station:WAVCIS:CSI15:1,2008-07-05T09:00:00Z,28.8332,-90.8320,10.0,2.018,208.0,,'11111222,11111222,99999999' 
WAVCIS,ioos:station:WAVCIS:CSI15:1,2008-07-05T10:00:00Z,28.8332,-90.8320,10.0,2.036,199.0,,'11111222,11111222,99999999' 
WAVCIS,ioos:station:WAVCIS:CSI15:1,2008-07-05T11:00:00Z,28.8332,-90.8320,10.0,1.305,179.0,,'11111222,11111222,99999999' 
WAVCIS,ioos:station:WAVCIS:CSI15:1,2008-07-05T12:00:00Z,28.8332,-90.8320,10.0,1.26,163.0,,'11111222,11111222,99999999' 
WAVCIS,ioos:station:WAVCIS:CSI15:1,2008-07-05T13:00:00Z,28.8332,-90.8320,10.0,0.803,119.0,,'11111222,11111222,99999999' 
WAVCIS,ioos:station:WAVCIS:CSI15:1,2008-07-05T14:00:00Z,28.8332,-90.8320,10.0,1.302,85.0,,'11111222,11111222,99999999' 
WAVCIS,ioos:station:WAVCIS:CSI15:1,2008-07-05T15:00:00Z,28.8332,-90.8320,10.0,0.703,144.0,,'11111222,11111222,99999999' 
WAVCIS,ioos:station:WAVCIS:CSI15:1,2008-07-05T16:00:00Z,28.8332,-90.8320,10.0,1.067,158.0,,'11111222,11111222,99999999' 
WAVCIS,ioos:station:WAVCIS:CSI15:1,2008-07-05T17:00:00Z,28.8332,-90.8320,10.0,4.139,43.0,,'11111222,11111222,99999999' 
WAVCIS,ioos:station:WAVCIS:CSI15:1,2008-07-05T18:00:00Z,28.8332,-90.8320,10.0,2.509,58.0,,'11111222,11111222,99999999' 
WAVCIS,ioos:station:WAVCIS:CSI15:1,2008-07-05T19:00:00Z,28.8332,-90.8320,10.0,3.004,83.0,,'11111222,11111222,99999999' 
WAVCIS,ioos:station:WAVCIS:CSI15:1,2008-07-05T20:00:00Z,28.8332,-90.8320,10.0,3.754,112.0,,'11111222,11111222,99999999' 
WAVCIS,ioos:station:WAVCIS:CSI15:1,2008-07-05T21:00:00Z,28.8332,-90.8320,10.0,3.95,136.0,,'11111222,11111222,99999999' 
WAVCIS,ioos:station:WAVCIS:CSI15:1,2008-07-05T22:00:00Z,28.8332,-90.8320,10.0,4.423,144.0,,'11111222,11111222,99999999' 
WAVCIS,ioos:station:WAVCIS:CSI15:1,2008-07-05T23:00:00Z,28.8332,-90.8320,10.0,3.749,154.0,,'11111222,11111222,99999999' 
WAVCIS,ioos:station:WAVCIS:CSI15:1,2008-07-06T00:00:00Z,28.8332,-90.8320,10.0,3.639,176.0,,'11111222,11111222,99999999' 
WAVCIS,ioos:station:WAVCIS:CSI15:1,2008-07-06T01:00:00Z,28.8332,-90.8320,10.0,3.15,163.0,,'11111222,11111222,99999999' 
WAVCIS,ioos:station:WAVCIS:CSI15:1,2008-07-06T02:00:00Z,28.8332,-90.8320,10.0,1.564,156.0,,'11111222,11111222,99999999' 
WAVCIS,ioos:station:WAVCIS:CSI15:1,2008-07-06T03:00:00Z,28.8332,-90.8320,10.0,0.928,113.0,,'11111222,11111222,99999999' 
WAVCIS,ioos:station:WAVCIS:CSI15:1,2008-07-06T04:00:00Z,28.8332,-90.8320,10.0,2.146,136.0,,'11111222,11111222,99999999' 
WAVCIS,ioos:station:WAVCIS:CSI15:1,2008-07-06T05:00:00Z,28.8332,-90.8320,10.0,2.037,111.0,,'11111222,11111222,99999999' 
WAVCIS,ioos:station:WAVCIS:CSI15:1,2008-07-06T06:00:00Z,28.8332,-90.8320,10.0,2.867,162.0,,'11111222,11111222,99999999' 
WAVCIS,ioos:station:WAVCIS:CSI15:1,2008-07-06T07:00:00Z,28.8332,-90.8320,10.0,3.69,143.0,,'11111222,11111222,99999999' 
WAVCIS,ioos:station:WAVCIS:CSI15:1,2008-07-06T08:00:00Z,28.8332,-90.8320,10.0,3.599,130.0,,'11111222,11111222,99999999' 
WAVCIS,ioos:station:WAVCIS:CSI15:1,2008-07-06T09:00:00Z,28.8332,-90.8320,10.0,3.484,139.0,,'11111222,11111222,99999999' 
WAVCIS,ioos:station:WAVCIS:CSI15:1,2008-07-06T10:00:00Z,28.8332,-90.8320,10.0,5.869,153.0,,'11111222,11111222,99999999' 
WAVCIS,ioos:station:WAVCIS:CSI15:1,2008-07-06T11:00:00Z,28.8332,-90.8320,10.0,3.642,147.0,,'11111222,11111222,99999999' 
WAVCIS,ioos:station:WAVCIS:CSI15:1,2008-07-06T12:00:00Z,28.8332,-90.8320,10.0,2.486,158.0,,'11111222,11111222,99999999' 
WAVCIS,ioos:station:WAVCIS:CSI15:1,2008-07-06T13:00:00Z,28.8332,-90.8320,10.0,2.505,174.0,,'11111222,11111222,99999999' 
WAVCIS,ioos:station:WAVCIS:CSI15:1,2008-07-06T14:00:00Z,28.8332,-90.8320,10.0,0.991,126.0,,'11111222,11111222,99999999' 
WAVCIS,ioos:station:WAVCIS:CSI15:1,2008-07-06T15:00:00Z,28.8332,-90.8320,10.0,8.65,70.0,,'11111222,11111222,99999999' 
WAVCIS,ioos:station:WAVCIS:CSI15:1,2008-07-06T16:00:00Z,28.8332,-90.8320,10.0,2.815,59.0,,'11111222,11111222,99999999' 
WAVCIS,ioos:station:WAVCIS:CSI15:1,2008-07-06T17:00:00Z,28.8332,-90.8320,10.0,3.338,55.0,,'11111222,11111222,99999999' 
WAVCIS,ioos:station:WAVCIS:CSI15:1,2008-07-06T18:00:00Z,28.8332,-90.8320,10.0,1.876,79.0,,'11111222,11111222,99999999' 
WAVCIS,ioos:station:WAVCIS:CSI15:1,2008-07-06T19:00:00Z,28.8332,-90.8320,10.0,1.741,111.0,,'11111222,11111222,99999999' 
WAVCIS,ioos:station:WAVCIS:CSI15:1,2008-07-06T20:00:00Z,28.8332,-90.8320,10.0,2.87,75.0,,'11111222,11111222,99999999' 
WAVCIS,ioos:station:WAVCIS:CSI15:1,2008-07-06T21:00:00Z,28.8332,-90.8320,10.0,3.522,89.0,,'11111222,11111222,99999999' 
WAVCIS,ioos:station:WAVCIS:CSI15:1,2008-07-06T22:00:00Z,28.8332,-90.8320,10.0,4.167,86.0,,'11111222,11111222,99999999' 
WAVCIS,ioos:station:WAVCIS:CSI15:1,2008-07-06T23:00:00Z,28.8332,-90.8320,10.0,4.7,80.0,,'11111222,11111222,99999999' 
WAVCIS,ioos:station:WAVCIS:CSI15:1,2008-07-07T00:00:00Z,28.8332,-90.8320,10.0,5.332,90.0,,'11111222,11111222,99999999' 
WAVCIS,ioos:station:WAVCIS:CSI15:1,2008-07-07T01:00:00Z,28.8332,-90.8320,10.0,5.281,100.0,,'11111222,11111222,99999999' 
WAVCIS,ioos:station:WAVCIS:CSI15:1,2008-07-07T02:00:00Z,28.8332,-90.8320,10.0,5.128,110.0,,'11111222,11111222,99999999' 
WAVCIS,ioos:station:WAVCIS:CSI15:1,2008-07-07T03:00:00Z,28.8332,-90.8320,10.0,4.974,93.0,,'11111222,11111222,99999999' 
WAVCIS,ioos:station:WAVCIS:CSI15:1,2008-07-07T04:00:00Z,28.8332,-90.8320,10.0,5.186,111.0,,'11111222,11111222,99999999' 
WAVCIS,ioos:station:WAVCIS:CSI15:1,2008-07-07T05:00:00Z,28.8332,-90.8320,10.0,4.778,126.0,,'11111222,11111222,99999999' 
WAVCIS,ioos:station:WAVCIS:CSI15:1,2008-07-07T06:00:00Z,28.8332,-90.8320,10.0,4.616,120.0,,'11111222,11111222,99999999' 
WAVCIS,ioos:station:WAVCIS:CSI15:1,2008-07-07T07:00:00Z,28.8332,-90.8320,10.0,4.991,111.0,,'11111222,11111222,99999999' 
WAVCIS,ioos:station:WAVCIS:CSI15:1,2008-07-07T08:00:00Z,28.8332,-90.8320,10.0,5.033,108.0,,'11111222,11111222,99999999' 
WAVCIS,ioos:station:WAVCIS:CSI15:1,2008-07-07T09:00:00Z,28.8332,-90.8320,10.0,5.474,105.0,,'11111222,11111222,99999999' 
WAVCIS,ioos:station:WAVCIS:CSI15:1,2008-07-07T10:00:00Z,28.8332,-90.8320,10.0,4.328,102.0,,'11111222,11111222,99999999' 
WAVCIS,ioos:station:WAVCIS:CSI15:1,2008-07-07T11:00:00Z,28.8332,-90.8320,10.0,3.735,120.0,,'11111222,11111222,99999999' 
WAVCIS,ioos:station:WAVCIS:CSI15:1,2008-07-07T12:00:00Z,28.8332,-90.8320,10.0,3.592,115.0,,'11111222,11111222,99999999' 
WAVCIS,ioos:station:WAVCIS:CSI15:1,2008-07-07T13:00:00Z,28.8332,-90.8320,10.0,3.355,106.0,,'11111222,11111222,99999999' 
WAVCIS,ioos:station:WAVCIS:CSI15:1,2008-07-07T14:00:00Z,28.8332,-90.8320,10.0,3.564,82.0,,'11111222,11111222,99999999' 
WAVCIS,ioos:station:WAVCIS:CSI15:1,2008-07-07T15:00:00Z,28.8332,-90.8320,10.0,3.976,85.0,,'11111222,11111222,99999999' 
WAVCIS,ioos:station:WAVCIS:CSI15:1,2008-07-07T16:00:00Z,28.8332,-90.8320,10.0,5.084,94.0,,'11111222,11111222,99999999' 
WAVCIS,ioos:station:WAVCIS:CSI15:1,2008-07-07T17:00:00Z,28.8332,-90.8320,10.0,5.481,144.0,,'11111222,11111222,99999999' 
WAVCIS,ioos:station:WAVCIS:CSI15:1,2008-07-07T18:00:00Z,28.8332,-90.8320,10.0,4.655,91.0,,'11111222,11111222,99999999' 
WAVCIS,ioos:station:WAVCIS:CSI15:1,2008-07-07T19:00:00Z,28.8332,-90.8320,10.0,4.566,93.0,,'11111222,11111222,99999999' 
WAVCIS,ioos:station:WAVCIS:CSI15:1,2008-07-07T20:00:00Z,28.8332,-90.8320,10.0,4.956,97.0,,'11111222,11111222,99999999' 
WAVCIS,ioos:station:WAVCIS:CSI15:1,2008-07-07T21:00:00Z,28.8332,-90.8320,10.0,6.144,161.0,,'11111222,11111222,99999999' 
WAVCIS,ioos:station:WAVCIS:CSI15:1,2008-07-07T22:00:00Z,28.8332,-90.8320,10.0,5.123,120.0,,'11111222,11111222,99999999' 
WAVCIS,ioos:station:WAVCIS:CSI15:1,2008-07-07T23:00:00Z,28.8332,-90.8320,10.0,4.283,121.0,,'11111222,11111222,99999999' 
WAVCIS,ioos:station:WAVCIS:CSI15:1,2008-07-08T00:00:00Z,28.8332,-90.8320,10.0,4.573,126.0,,'11111222,11111222,99999999' 
WAVCIS,ioos:station:WAVCIS:CSI15:1,2008-07-08T01:00:00Z,28.8332,-90.8320,10.0,4.911,94.0,,'11111222,11111222,99999999' 
WAVCIS,ioos:station:WAVCIS:CSI15:1,2008-07-08T02:00:00Z,28.8332,-90.8320,10.0,4.418,98.0,,'11111222,11111222,99999999' 
WAVCIS,ioos:station:WAVCIS:CSI15:1,2008-07-08T03:00:00Z,28.8332,-90.8320,10.0,5.127,117.0,,'11111222,11111222,99999999' 
WAVCIS,ioos:station:WAVCIS:CSI15:1,2008-07-08T04:00:00Z,28.8332,-90.8320,10.0,5.295,114.0,,'11111222,11111222,99999999' 
WAVCIS,ioos:station:WAVCIS:CSI15:1,2008-07-08T05:00:00Z,28.8332,-90.8320,10.0,6.623,102.0,,'11111222,11111222,99999999' 
WAVCIS,ioos:station:WAVCIS:CSI15:1,2008-07-08T06:00:00Z,28.8332,-90.8320,10.0,5.787,107.0,,'11111222,11111222,99999999' 
WAVCIS,ioos:station:WAVCIS:CSI15:1,2008-07-08T07:00:00Z,28.8332,-90.8320,10.0,6.712,120.0,,'11111222,11111222,99999999' 
WAVCIS,ioos:station:WAVCIS:CSI15:1,2008-07-08T08:00:00Z,28.8332,-90.8320,10.0,5.631,123.0,,'11111222,11111222,99999999' 
WAVCIS,ioos:station:WAVCIS:CSI15:1,2008-07-08T09:00:00Z,28.8332,-90.8320,10.0,4.018,122.0,,'11111222,11111222,99999999' 
WAVCIS,ioos:station:WAVCIS:CSI15:1,2008-07-08T10:00:00Z,28.8332,-90.8320,10.0,4.41,86.0,,'11111222,11111222,99999999' 
WAVCIS,ioos:station:WAVCIS:CSI15:1,2008-07-08T11:00:00Z,28.8332,-90.8320,10.0,1.269,112.0,,'11111222,11111222,99999999' 
WAVCIS,ioos:station:WAVCIS:CSI15:1,2008-07-08T12:00:00Z,28.8332,-90.8320,10.0,2.36,78.0,,'11111222,11111222,99999999' 
WAVCIS,ioos:station:WAVCIS:CSI15:1,2008-07-08T13:00:00Z,28.8332,-90.8320,10.0,3.431,117.0,,'11111222,11111222,99999999' 
WAVCIS,ioos:station:WAVCIS:CSI15:1,2008-07-08T14:00:00Z,28.8332,-90.8320,10.0,3.589,91.0,,'11111222,11111222,99999999' 
WAVCIS,ioos:station:WAVCIS:CSI15:1,2008-07-08T15:00:00Z,28.8332,-90.8320,10.0,3.388,81.0,,'11111222,11111222,99999999' 
WAVCIS,ioos:station:WAVCIS:CSI15:1,2008-07-08T16:00:00Z,28.8332,-90.8320,10.0,3.95,104.0,,'11111222,11111222,99999999' 
WAVCIS,ioos:station:WAVCIS:CSI15:1,2008-07-08T17:00:00Z,28.8332,-90.8320,10.0,3.958,100.0,,'11111222,11111222,99999999' 
WAVCIS,ioos:station:WAVCIS:CSI15:1,2008-07-08T18:00:00Z,28.8332,-90.8320,10.0,4.397,99.0,,'11111222,11111222,99999999' 
WAVCIS,ioos:station:WAVCIS:CSI15:1,2008-07-08T19:00:00Z,28.8332,-90.8320,10.0,4.523,100.0,,'11111222,11111222,99999999' 
WAVCIS,ioos:station:WAVCIS:CSI15:1,2008-07-08T20:00:00Z,28.8332,-90.8320,10.0,4.016,111.0,,'11111222,11111222,99999999' 
WAVCIS,ioos:station:WAVCIS:CSI15:1,2008-07-08T21:00:00Z,28.8332,-90.8320,10.0,4.868,108.0,,'11111222,11111222,99999999' 
WAVCIS,ioos:station:WAVCIS:CSI15:1,2008-07-08T22:00:00Z,28.8332,-90.8320,10.0,5.478,116.0,,'11111222,11111222,99999999' 
WAVCIS,ioos:station:WAVCIS:CSI15:1,2008-07-08T23:00:00Z,28.8332,-90.8320,10.0,4.204,113.0,,'11111222,11111222,99999999' 
WAVCIS,ioos:station:WAVCIS:CSI15:1,2008-07-09T00:00:00Z,28.8332,-90.8320,10.0,4.116,116.0,,'11111222,11111222,99999999' 
WAVCIS,ioos:station:WAVCIS:CSI15:1,2008-07-09T01:00:00Z,28.8332,-90.8320,10.0,4.729,124.0,,'11111222,11111222,99999999' 
WAVCIS,ioos:station:WAVCIS:CSI15:1,2008-07-09T02:00:00Z,28.8332,-90.8320,10.0,4.408,124.0,,'11111222,11111222,99999999' 
WAVCIS,ioos:station:WAVCIS:CSI15:1,2008-07-09T03:00:00Z,28.8332,-90.8320,10.0,5.08,110.0,,'11111222,11111222,99999999' 
WAVCIS,ioos:station:WAVCIS:CSI15:1,2008-07-09T04:00:00Z,28.8332,-90.8320,10.0,4.595,118.0,,'11111222,11111222,99999999' 